EN

Hourly Weather Buykovo

Today, 16 April, Friday

Time Temperature Precipitation Wind Pressure Humidity
00:00 +9°C° 0.6 mm 2 mps 742 mmHg 94%
01:00 +9°C° 0.6 mm 2 mps 741 mmHg 95%
02:00 +9°C° 0.6 mm 2 mps 741 mmHg 96%
03:00 +8°C° 0.1 mm 2 mps 742 mmHg 96%
04:00 +8°C° 0.1 mm 3 mps 742 mmHg 95%
05:00 +8°C° 0.1 mm 3 mps 742 mmHg 95%
06:00 +9°C° 0 mm 3 mps 742 mmHg 90%
07:00 +10°C° 0 mm 4 mps 742 mmHg 85%
08:00 +11°C° 0 mm 4 mps 743 mmHg 80%
09:00 +12°C° 0.1 mm 4 mps 743 mmHg 73%
10:00 +13°C° 0.1 mm 5 mps 743 mmHg 66%
11:00 +14°C° 0.1 mm 5 mps 743 mmHg 59%
12:00 +14°C° 0.1 mm 5 mps 743 mmHg 57%
13:00 +14°C° 0.1 mm 5 mps 743 mmHg 56%
14:00 +14°C° 0.1 mm 5 mps 744 mmHg 55%
15:00 +14°C° 0.2 mm 4 mps 743 mmHg 60%
16:00 +13°C° 0.2 mm 4 mps 743 mmHg 64%
17:00 +12°C° 0.2 mm 3 mps 743 mmHg 69%
18:00 +11°C° 0.1 mm 3 mps 744 mmHg 74%
19:00 +10°C° 0.1 mm 2 mps 744 mmHg 79%
20:00 +10°C° 0.1 mm 1 mps 744 mmHg 84%
21:00 +9°C° 0 mm 1 mps 744 mmHg 85%
22:00 +9°C° 0 mm 1 mps 744 mmHg 85%
23:00 +9°C° 0 mm 1 mps 744 mmHg 86%

Tomorrow, 17 April, Saturday

Time Temperature Precipitation Wind Pressure Humidity
00:00 +7°C° 0 mm 2 mps 745 mmHg 87%
01:00 +7°C° 0 mm 2 mps 745 mmHg 88%
02:00 +6°C° 0 mm 2 mps 745 mmHg 89%
03:00 +6°C° 0 mm 2 mps 745 mmHg 90%
04:00 +6°C° 0 mm 2 mps 745 mmHg 91%
05:00 +5°C° 0 mm 2 mps 745 mmHg 92%
06:00 +7°C° 0 mm 2 mps 746 mmHg 86%
07:00 +8°C° 0 mm 2 mps 746 mmHg 81%
08:00 +10°C° 0 mm 2 mps 746 mmHg 76%
09:00 +11°C° 0.1 mm 3 mps 746 mmHg 75%
10:00 +12°C° 0.1 mm 4 mps 746 mmHg 74%
11:00 +12°C° 0.1 mm 4 mps 745 mmHg 73%
12:00 +10°C° 0.5 mm 5 mps 745 mmHg 78%
13:00 +10°C° 0.5 mm 5 mps 745 mmHg 84%
14:00 +9°C° 0.5 mm 5 mps 745 mmHg 89%
15:00 +9°C° 1.7 mm 5 mps 745 mmHg 90%
16:00 +10°C° 1.7 mm 4 mps 744 mmHg 90%
17:00 +10°C° 1.7 mm 4 mps 744 mmHg 90%
18:00 +8°C° 1.1 mm 4 mps 744 mmHg 91%
19:00 +8°C° 1.1 mm 4 mps 744 mmHg 93%
20:00 +8°C° 1.1 mm 3 mps 744 mmHg 94%
21:00 +8°C° 0.7 mm 3 mps 744 mmHg 93%
22:00 +8°C° 0.7 mm 3 mps 744 mmHg 93%
23:00 +8°C° 0.7 mm 3 mps 744 mmHg 92%

Day after tomorrow, 18 April, Sunday

Time Temperature Precipitation Wind Pressure Humidity
00:00 +7°C° 0.1 mm 3 mps 744 mmHg 92%
01:00 +7°C° 0.1 mm 3 mps 744 mmHg 92%
02:00 +6°C° 0.1 mm 4 mps 744 mmHg 92%
03:00 +6°C° 0.1 mm 4 mps 744 mmHg 92%
04:00 +6°C° 0.1 mm 4 mps 744 mmHg 92%
05:00 +5°C° 0.1 mm 4 mps 744 mmHg 91%
06:00 +5°C° 0 mm 4 mps 745 mmHg 90%
07:00 +5°C° 0 mm 4 mps 745 mmHg 88%
08:00 +5°C° 0 mm 4 mps 745 mmHg 87%
09:00 +6°C° 0 mm 4 mps 746 mmHg 83%
10:00 +8°C° 0 mm 3 mps 746 mmHg 79%
11:00 +8°C° 0 mm 3 mps 746 mmHg 75%
12:00 +9°C° 0.1 mm 3 mps 746 mmHg 71%
13:00 +9°C° 0.1 mm 3 mps 746 mmHg 68%
14:00 +10°C° 0.1 mm 3 mps 746 mmHg 64%
15:00 +9°C° 0.5 mm 3 mps 746 mmHg 71%
16:00 +8°C° 0.5 mm 3 mps 746 mmHg 78%
17:00 +8°C° 0.5 mm 3 mps 746 mmHg 85%
18:00 +6°C° 0.6 mm 4 mps 746 mmHg 87%
19:00 +6°C° 0.6 mm 4 mps 746 mmHg 90%
20:00 +5°C° 0.6 mm 4 mps 746 mmHg 92%
21:00 +5°C° 0.2 mm 4 mps 746 mmHg 93%
22:00 +5°C° 0.2 mm 4 mps 746 mmHg 93%
23:00 +5°C° 0.2 mm 3 mps 746 mmHg 94%

19 April, Monday

Time Temperature Precipitation Wind Pressure Humidity
00:00 +5°C° 0.2 mm 4 mps 746 mmHg 94%
01:00 +5°C° 0.2 mm 4 mps 746 mmHg 93%
02:00 +5°C° 0.2 mm 4 mps 746 mmHg 93%
03:00 +5°C° 0.5 mm 4 mps 746 mmHg 93%
04:00 +5°C° 0.5 mm 4 mps 746 mmHg 94%
05:00 +5°C° 0.5 mm 5 mps 745 mmHg 94%
06:00 +5°C° 0.8 mm 5 mps 745 mmHg 93%
07:00 +5°C° 0.8 mm 5 mps 746 mmHg 92%
08:00 +5°C° 0.8 mm 5 mps 746 mmHg 90%
09:00 +6°C° 0.6 mm 5 mps 746 mmHg 88%
10:00 +6°C° 0.6 mm 4 mps 746 mmHg 85%
11:00 +7°C° 0.6 mm 4 mps 746 mmHg 83%
12:00 +8°C° 0.2 mm 4 mps 745 mmHg 77%
13:00 +10°C° 0.2 mm 4 mps 745 mmHg 72%
14:00 +10°C° 0.2 mm 5 mps 745 mmHg 66%
15:00 +10°C° 0.1 mm 5 mps 745 mmHg 68%
16:00 +10°C° 0.1 mm 5 mps 744 mmHg 70%
17:00 +9°C° 0.1 mm 5 mps 744 mmHg 72%
18:00 +8°C° 0.1 mm 5 mps 744 mmHg 78%
19:00 +8°C° 0.1 mm 5 mps 744 mmHg 83%
20:00 +7°C° 0.1 mm 5 mps 743 mmHg 89%
21:00 +7°C° 0.2 mm 5 mps 743 mmHg 90%
22:00 +6°C° 0.2 mm 5 mps 742 mmHg 91%
23:00 +6°C° 0.2 mm 5 mps 742 mmHg 92%

20 April, Tuesday

Time Temperature Precipitation Wind Pressure Humidity
00:00 +5°C° 0.9 mm 6 mps 741 mmHg 92%
01:00 +5°C° 0.9 mm 6 mps 741 mmHg 92%
02:00 +4°C° 0.9 mm 6 mps 740 mmHg 92%
03:00 +4°C° 0.5 mm 7 mps 739 mmHg 92%
04:00 +4°C° 0.5 mm 7 mps 739 mmHg 92%
05:00 +4°C° 0.5 mm 7 mps 738 mmHg 91%
06:00 +4°C° 1 mm 7 mps 737 mmHg 92%
07:00 +4°C° 1 mm 8 mps 736 mmHg 92%
08:00 +4°C° 1 mm 8 mps 735 mmHg 92%
09:00 +4°C° 1.8 mm 8 mps 734 mmHg 91%
10:00 +3°C° 1.8 mm 9 mps 732 mmHg 91%
11:00 +5°C° 1.8 mm 9 mps 731 mmHg 91%
12:00 +5°C° 1.6 mm 10 mps 730 mmHg 90%
13:00 +5°C° 1.6 mm 10 mps 729 mmHg 90%
14:00 +6°C° 1.6 mm 10 mps 727 mmHg 89%
15:00 +6°C° 1.1 mm 9 mps 727 mmHg 90%
16:00 +7°C° 1.1 mm 8 mps 727 mmHg 91%
17:00 +9°C° 1.1 mm 7 mps 727 mmHg 91%
18:00 +8°C° 0.7 mm 6 mps 727 mmHg 91%
19:00 +8°C° 0.7 mm 6 mps 727 mmHg 90%
20:00 +8°C° 0.7 mm 6 mps 727 mmHg 89%
21:00 +8°C° 0.4 mm 5 mps 727 mmHg 90%
22:00 +7°C° 0.4 mm 5 mps 726 mmHg 91%
23:00 +7°C° 0.4 mm 5 mps 726 mmHg 92%

21 April, Wednesday

Time Temperature Precipitation Wind Pressure Humidity
00:00 +7°C° 0.3 mm 5 mps 726 mmHg 92%
01:00 +6°C° 0.3 mm 5 mps 726 mmHg 93%
02:00 +5°C° 0.3 mm 6 mps 726 mmHg 93%
03:00 +4°C° 0.2 mm 6 mps 727 mmHg 94%
04:00 +2°C° 0.2 mm 6 mps 728 mmHg 95%
05:00 0°C° 0.2 mm 7 mps 728 mmHg 96%
06:00 +2°C° 0.1 mm 7 mps 729 mmHg 95%
07:00 +2°C° 0.1 mm 7 mps 730 mmHg 94%
08:00 +3°C° 0.1 mm 7 mps 730 mmHg 92%
09:00 +3°C° 0.2 mm 7 mps 731 mmHg 93%
10:00 +2°C° 0.2 mm 8 mps 731 mmHg 94%
11:00 +2°C° 0.2 mm 8 mps 732 mmHg 94%
12:00 +2°C° 0.3 mm 8 mps 732 mmHg 95%
13:00 +2°C° 0.3 mm 8 mps 732 mmHg 95%
14:00 +2°C° 0.3 mm 8 mps 733 mmHg 95%
15:00 +2°C° 0.5 mm 8 mps 733 mmHg 96%
16:00 +3°C° 0.5 mm 7 mps 734 mmHg 96%
17:00 +3°C° 0.5 mm 7 mps 735 mmHg 96%
18:00 +3°C° 0.1 mm 7 mps 735 mmHg 95%
19:00 +3°C° 0.1 mm 6 mps 736 mmHg 95%
20:00 +3°C° 0.1 mm 6 mps 736 mmHg 94%
21:00 +3°C° 0.2 mm 6 mps 737 mmHg 95%
22:00 +3°C° 0.2 mm 6 mps 737 mmHg 96%
23:00 +3°C° 0.2 mm 5 mps 737 mmHg 96%
Show more

We Need Your Consent

Meteoprog and our Service Providers may store and access personal data such as cookies, device identifiers or other similar technologies on your device and process such data to personalise content and ads, as well as provide social media features and to analyse the traffic.

  • Store and/or access information on your device

    Cookies, device identifiers or other information can be stored or accessed on your device for the purposes indicated above.

  • Personalised ads and content, ad and content measurement, audience insights, and products development

    Ads and content can be personalised based on a profile. More data can be added to better personalise ads and content. Ad and content performance can be measured. Insights about the audience who saw the ads and content can be derived. Such data can be used to develop or improve user’s experience, systems and software.

By clicking ‘I Agree’ you will allow the use of indicated cookies, device identifiers, web beacons or other similar technologies. Your settings can be changed in the browser on your device.

For certain purposes, legitimate interests may be relied on, rather than consent. You can read more about this in our Privacy and Cookie Policy.